Simultaneous Nadir Overpasses (SNOs) Predictions

Prediction of SNOs near equator between AQUA and NPP Satellite Orbit:

Table of predicted SNOs near equator for the next 14.0 days since TLE Epoch: 5/5/2013
Index Date (AQUA) Time (AQUA) AQUA Lat,Lon Date (NPP) Time (NPP) NPP Lat,Lon Distance(km) Time Diff (sec)
1 05/08/2013 00:59:32 5.44,-171.64 05/08/2013 00:49:45 5.29,-172.24 68.40 587
2 05/08/2013 01:47:38 -0.84, -3.01 05/08/2013 01:39:07 -0.68, -3.88 98.40 511
3 05/10/2013 17:15:25 3.55, -55.34 05/10/2013 17:06:09 3.40, -56.04 79.80 556
4 05/13/2013 08:43:01 -6.23,-107.63 05/13/2013 08:33:01 -6.13,-108.18 61.36 600
5 05/13/2013 09:31:17 1.71, 60.95 05/13/2013 09:22:32 1.52, 60.15 91.46 525
6 05/16/2013 00:58:53 -4.36, 8.67 05/16/2013 00:49:24 -4.20, 8.03 73.18 569
7 05/18/2013 16:32:26 28.07, -48.48 05/18/2013 16:22:26 28.07, -49.26 76.75 600
8 05/18/2013 17:14:43 -2.41, 124.99 05/18/2013 17:05:46 -2.22, 124.25 85.20 537




NCC Satellite Simultaneous Nadir Overpasses (SNOs) Prediction Service
